Regional Weather Roundup
Issued by NWS

Home | Current Version | Previous Version | Graphics & Text | Print | Product List | Glossary On
Versions: 1 2 3 4 5 6 7 8 9 10 11 12 13 14 15 16 17 18 19 20 21 22 23 24 25 26 27 28
000
ASUS45 KPSR 180510
RWRAZ

ARIZONA HOURLY REGIONAL WEATHER ROUNDUP
NATIONAL WEATHER SERVICE PHOENIX AZ
1000 PM MST THU AUG 17 2017

NOTE: FAIR INDICATES FEW OR NO CLOUDS BELOW 12,000 FEET WITH NO
SIGNIFICANT WEATHER AND/OR OBSTRUCTIONS TO VISIBILITY.

AZZ001>003-036-180600-
NORTHWEST ARIZONA

CITY           SKY/WX    TMP DP  RH WIND       PRES   REMARKS
BULLHEAD CITY  CLEAR     95  37  13 CALM      29.84R
KINGMAN        CLEAR     77  36  22 S9        30.07R
$$

AZZ004>008-015-016-018-180600-
NORTH CENTRAL ARIZONA

CITY           SKY/WX    TMP DP  RH WIND       PRES   REMARKS
GRAND CANYON   CLEAR     55  35  47 CALM      30.32R
WILLIAMS       CLEAR     57  41  54 S9        30.33R
PRESCOTT       CLEAR     68  38  33 S8        30.20S
FLAGSTAFF      CLEAR     54  36  50 CALM      30.36R
PAYSON           N/A     70  25  18 CALM      30.23S
PAGE           CLEAR     83  34  17 SW5       30.07S
$$

AZZ009>014-017-180600-
NORTHEAST ARIZONA

CITY           SKY/WX    TMP DP  RH WIND       PRES   REMARKS
WINSLOW        CLEAR     70  33  25 W8        30.17S
SAINT JOHNS    CLEAR     71  39  31 SW12      30.21S
WINDOW ROCK    CLEAR     60  29  30 CALM      30.30F
SHOW LOW       CLEAR     66  37  34 S9        30.31S
$$

AZZ540-542>544-546-548-180600-
GREATER PHOENIX AREA

CITY           SKY/WX    TMP DP  RH WIND       PRES   REMARKS
PHOENIX        CLEAR     91  40  16 CALM      29.87S
BUCKEYE        CLEAR     86  37  17 NE5       29.88S
LUKE AFB       CLEAR     86  50  29 NW9       29.87R
DEER VALLEY    CLEAR     86  29  12 CALM      29.90S
SCOTTSDALE     CLEAR     89  32  13 N3        29.92S
$$

AZZ539-553-180600-
SOUTHWEST MARICOPA COUNTY AND PINAL COUNTY

CITY           SKY/WX    TMP DP  RH WIND       PRES   REMARKS
CASA GRANDE    CLEAR     84  45  25 N6        29.92R
GILA BEND      CLEAR     88  34  14 S6        29.87R
$$

AZZ503-504-507>509-180600-
SOUTHEAST ARIZONA

CITY           SKY/WX    TMP DP  RH WIND       PRES   REMARKS
TUCSON         NOT AVBL
DAVIS-MONTHAN  CLEAR     80  40  23 CALM      30.00R
NOGALES        PTCLDY    70  43  37 NE5       30.12R
SIERRA VISTA   PTCLDY    76  33  21 SW10      30.18S
DOUGLAS        MOCLDY    70  54  56 NE6       30.12S
SAFFORD        CLEAR     81  39  22 NW10      30.02R
$$

AZZ532-180600-
SOUTHWEST ARIZONA

CITY           SKY/WX    TMP DP  RH WIND       PRES   REMARKS
YUMA           CLEAR     93  44  18 SW9       29.83R
$$

CAZ041-043-047-048-061-525>527-560>570-180600-
SOUTHERN CALIFORNIA

CITY           SKY/WX    TMP DP  RH WIND       PRES   REMARKS
DOWNTOWN L.A.  CLEAR     68  62  81 VRB6      29.99R
L.A. AIRPORT   PTCLDY    66  63  90 W10       30.00R
SAN DIEGO      PTCLDY    69  62  78 NW7       30.01R
BURBANK        CLEAR     71  58  63 SE8       29.99R
ONTARIO        CLEAR     72  58  61 W9        30.00R
RIVERSIDE      CLEAR     73  58  59 W6        30.00R
PALM SPRINGS   CLEAR     90  49  24 NW13G24   29.87R
EL CENTRO NAS  CLEAR     90  52  27 NW9       29.82R
IMPERIAL       CLEAR     91  58  32 W3        29.80R
BLYTHE         CLEAR     94  45  18 W7        29.82S
NEEDLES        CLEAR     96  31  10 W10       29.85S
$$

NVZ020-UTZ003-180600-
SOUTHERN NEVADA-UTAH

CITY           SKY/WX    TMP DP  RH WIND       PRES   REMARKS
LAS VEGAS      CLEAR     92  39  15 SW3       29.94R
SALT LAKE CITY CLEAR     76  39  26 S8        30.09R
$$

NMZ009-TXZ055-180600-
NEW MEXICO-WEST TEXAS

CITY           SKY/WX    TMP DP  RH WIND       PRES   REMARKS
ALBUQUERQUE    PTCLDY    78  36  21 E5        30.17S
EL PASO        PTCLDY    83  56  39 SE14G22   30.08R
$$


........................KEY........................
SKY/WX - SKY CONDITION/WEATHER
TMP    - TEMPERATURE IN FAHRENHEIT
DP     - DEW POINT IN FAHRENHEIT
RH     - RELATIVE HUMIDITY IN PERCENT
WIND   - DIRECTION AND SPEED IN MILES PER HOUR (MPH)
VRB    - VARIABLE WIND DIRECTION
PRES   - MEAN SEA LEVEL PRESSURE IN INCHES OF MERCURY
         F - FALLING PRESSURE   R - RISING PRESSURE
         S - STEADY PRESSURE
VSB    - VISIBILITY IN MILES
HX     - HEAT INDEX IN FAHRENHEIT
WCI    - WIND CHILL INDEX IN FAHRENHEIT
TC     - TEMPERATURE IN CELSIUS WHICH IS ALSO KNOWN AS
         TEMPERATURE IN CENTIGRADE
AFB    - AIR FORCE BASE
         LUKE AFB IS LUKE AIR FORCE BASE
         DAVIS-MONTHAN IS DAVIS-MONTHAN AIR FORCE BASE
NAS    - NAVAL AIR STATION
         EL CENTRO NAS IS EL CENTRO NAVAL AIR STATION
N/A    - NOT AVAILABLE





USA.gov is the U.S. government's official web portal to all federal, state and local government web resources and services.